Year,Month,Day,Hour,Minute,Value (Times are PST for insolation in W/m^2)
2018,03,25,00,00,0.00
2018,03,25,00,01,0.00
2018,03,25,00,02,0.00
2018,03,25,00,03,0.00
2018,03,25,00,04,0.00
2018,03,25,00,05,0.00
2018,03,25,00,06,0.00
2018,03,25,00,07,0.00
2018,03,25,00,08,0.00
2018,03,25,00,09,0.00
2018,03,25,00,10,0.00
2018,03,25,00,11,0.00
2018,03,25,00,12,0.00
2018,03,25,00,13,0.00
2018,03,25,00,14,0.00
2018,03,25,00,15,0.00
2018,03,25,00,16,0.00
2018,03,25,00,17,0.00
2018,03,25,00,18,0.00
2018,03,25,00,19,0.00
2018,03,25,00,20,0.00
2018,03,25,00,21,0.00
2018,03,25,00,22,0.00
2018,03,25,00,23,0.00
2018,03,25,00,24,0.00
2018,03,25,00,25,0.00
2018,03,25,00,26,0.00
2018,03,25,00,27,0.00
2018,03,25,00,28,0.00
2018,03,25,00,29,0.00
2018,03,25,00,30,0.00
2018,03,25,00,31,0.00
2018,03,25,00,32,0.00
2018,03,25,00,33,0.00
2018,03,25,00,34,0.00
2018,03,25,00,35,0.00
2018,03,25,00,36,0.00
2018,03,25,00,37,0.00
2018,03,25,00,38,0.00
2018,03,25,00,39,0.00
2018,03,25,00,40,0.00
2018,03,25,00,41,0.00
2018,03,25,00,42,0.00
2018,03,25,00,43,0.00
2018,03,25,00,44,0.00
2018,03,25,00,45,0.00
2018,03,25,00,46,0.00
2018,03,25,00,47,0.00
2018,03,25,00,48,0.00
2018,03,25,00,49,0.00
2018,03,25,00,50,0.00
2018,03,25,00,51,0.00
2018,03,25,00,52,0.00
2018,03,25,00,53,0.00
2018,03,25,00,54,0.00
2018,03,25,00,55,0.00
2018,03,25,00,56,0.00
2018,03,25,00,57,0.00
2018,03,25,00,58,0.00
2018,03,25,00,59,0.00
2018,03,25,01,00,0.00
2018,03,25,01,01,0.00
2018,03,25,01,02,0.00
2018,03,25,01,03,0.00
2018,03,25,01,04,0.00
2018,03,25,01,05,0.00
2018,03,25,01,06,0.00
2018,03,25,01,07,0.00
2018,03,25,01,08,0.00
2018,03,25,01,09,0.00
2018,03,25,01,10,0.00
2018,03,25,01,11,0.00
2018,03,25,01,12,0.00
2018,03,25,01,13,0.00
2018,03,25,01,14,0.00
2018,03,25,01,15,0.00
2018,03,25,01,16,0.00
2018,03,25,01,17,0.00
2018,03,25,01,18,0.00
2018,03,25,01,19,0.00
2018,03,25,01,20,0.00
2018,03,25,01,21,0.00
2018,03,25,01,22,0.00
2018,03,25,01,23,0.00
2018,03,25,01,24,0.00
2018,03,25,01,25,0.00
2018,03,25,01,26,0.00
2018,03,25,01,27,0.00
2018,03,25,01,28,0.00
2018,03,25,01,29,0.00
2018,03,25,01,30,0.00
2018,03,25,01,31,0.00
2018,03,25,01,32,0.00
2018,03,25,01,33,0.00
2018,03,25,01,34,0.00
2018,03,25,01,35,0.00
2018,03,25,01,36,0.00
2018,03,25,01,37,0.00
2018,03,25,01,38,0.00
2018,03,25,01,39,0.00
2018,03,25,01,40,0.00
2018,03,25,01,41,0.00
2018,03,25,01,42,0.00
2018,03,25,01,43,0.00
2018,03,25,01,44,0.00
2018,03,25,01,45,0.00
2018,03,25,01,46,0.00
2018,03,25,01,47,0.00
2018,03,25,01,48,0.00
2018,03,25,01,49,0.00
2018,03,25,01,50,0.00
2018,03,25,01,51,0.00
2018,03,25,01,52,0.00
2018,03,25,01,53,0.00
2018,03,25,01,54,0.00
2018,03,25,01,55,0.00
2018,03,25,01,56,0.00
2018,03,25,01,57,0.00
2018,03,25,01,58,0.00
2018,03,25,01,59,0.00
2018,03,25,02,00,0.00
2018,03,25,02,01,0.00
2018,03,25,02,02,0.00
2018,03,25,02,03,0.00
2018,03,25,02,04,0.00
2018,03,25,02,05,0.00
2018,03,25,02,06,0.00
2018,03,25,02,07,0.00
2018,03,25,02,08,0.00
2018,03,25,02,09,0.00
2018,03,25,02,10,0.00
2018,03,25,02,11,0.00
2018,03,25,02,12,0.00
2018,03,25,02,13,0.00
2018,03,25,02,14,0.00
2018,03,25,02,15,0.00
2018,03,25,02,16,0.00
2018,03,25,02,17,0.00
2018,03,25,02,18,0.00
2018,03,25,02,19,0.00
2018,03,25,02,20,0.00
2018,03,25,02,21,0.00
2018,03,25,02,22,0.00
2018,03,25,02,23,0.00
2018,03,25,02,24,0.00
2018,03,25,02,25,0.00
2018,03,25,02,26,0.00
2018,03,25,02,27,0.00
2018,03,25,02,28,0.00
2018,03,25,02,29,0.00
2018,03,25,02,30,0.00
2018,03,25,02,31,0.00
2018,03,25,02,32,0.00
2018,03,25,02,33,0.00
2018,03,25,02,34,0.00
2018,03,25,02,35,0.00
2018,03,25,02,36,0.00
2018,03,25,02,37,0.00
2018,03,25,02,38,0.00
2018,03,25,02,39,0.00
2018,03,25,02,40,0.00
2018,03,25,02,41,0.00
2018,03,25,02,42,0.00
2018,03,25,02,43,0.00
2018,03,25,02,44,0.00
2018,03,25,02,45,0.00
2018,03,25,02,46,0.00
2018,03,25,02,47,0.00
2018,03,25,02,48,0.00
2018,03,25,02,49,0.00
2018,03,25,02,50,0.00
2018,03,25,02,51,0.00
2018,03,25,02,52,0.00
2018,03,25,02,53,0.00
2018,03,25,02,54,0.00
2018,03,25,02,55,0.00
2018,03,25,02,56,0.00
2018,03,25,02,57,0.00
2018,03,25,02,58,0.00
2018,03,25,02,59,0.00
2018,03,25,03,00,0.00
2018,03,25,03,01,0.00
2018,03,25,03,02,0.00
2018,03,25,03,03,0.00
2018,03,25,03,04,0.00
2018,03,25,03,05,0.00
2018,03,25,03,06,0.00
2018,03,25,03,07,0.00
2018,03,25,03,08,0.00
2018,03,25,03,09,0.00
2018,03,25,03,10,0.00
2018,03,25,03,11,0.00
2018,03,25,03,12,0.00
2018,03,25,03,13,0.00
2018,03,25,03,14,0.00
2018,03,25,03,15,0.00
2018,03,25,03,16,0.00
2018,03,25,03,17,0.00
2018,03,25,03,18,0.00
2018,03,25,03,19,0.00
2018,03,25,03,20,0.00
2018,03,25,03,21,0.00
2018,03,25,03,22,0.00
2018,03,25,03,23,0.00
2018,03,25,03,24,0.00
2018,03,25,03,25,0.00
2018,03,25,03,26,0.00
2018,03,25,03,27,0.00
2018,03,25,03,28,0.00
2018,03,25,03,29,0.00
2018,03,25,03,30,0.00
2018,03,25,03,31,0.00
2018,03,25,03,32,0.00
2018,03,25,03,33,0.00
2018,03,25,03,34,0.00
2018,03,25,03,35,0.00
2018,03,25,03,36,0.00
2018,03,25,03,37,0.00
2018,03,25,03,38,0.00
2018,03,25,03,39,0.00
2018,03,25,03,40,0.00
2018,03,25,03,41,0.00
2018,03,25,03,42,0.00
2018,03,25,03,43,0.00
2018,03,25,03,44,0.00
2018,03,25,03,45,0.00
2018,03,25,03,46,0.00
2018,03,25,03,47,0.00
2018,03,25,03,48,0.00
2018,03,25,03,49,0.00
2018,03,25,03,50,0.00
2018,03,25,03,51,0.00
2018,03,25,03,52,0.00
2018,03,25,03,53,0.00
2018,03,25,03,54,0.00
2018,03,25,03,55,0.00
2018,03,25,03,56,0.00
2018,03,25,03,57,0.00
2018,03,25,03,58,0.00
2018,03,25,03,59,0.00
2018,03,25,04,00,0.00
2018,03,25,04,01,0.00
2018,03,25,04,02,0.00
2018,03,25,04,03,0.00
2018,03,25,04,04,0.00
2018,03,25,04,05,0.00
2018,03,25,04,06,0.00
2018,03,25,04,07,0.00
2018,03,25,04,08,0.00
2018,03,25,04,09,0.00
2018,03,25,04,10,0.00
2018,03,25,04,11,0.00
2018,03,25,04,12,0.00
2018,03,25,04,13,0.00
2018,03,25,04,14,0.00
2018,03,25,04,15,0.00
2018,03,25,04,16,0.00
2018,03,25,04,17,0.00
2018,03,25,04,18,0.00
2018,03,25,04,19,0.00
2018,03,25,04,20,0.00
2018,03,25,04,21,0.00
2018,03,25,04,22,0.00
2018,03,25,04,23,0.00
2018,03,25,04,24,0.00
2018,03,25,04,25,0.00
2018,03,25,04,26,0.00
2018,03,25,04,27,0.00
2018,03,25,04,28,0.00
2018,03,25,04,29,0.00
2018,03,25,04,30,0.00
2018,03,25,04,31,0.00
2018,03,25,04,32,0.00
2018,03,25,04,33,0.00
2018,03,25,04,34,0.00
2018,03,25,04,35,0.00
2018,03,25,04,36,0.00
2018,03,25,04,37,0.00
2018,03,25,04,38,0.00
2018,03,25,04,39,0.00
2018,03,25,04,40,0.00
2018,03,25,04,41,0.00
2018,03,25,04,42,0.00
2018,03,25,04,43,0.00
2018,03,25,04,44,0.00
2018,03,25,04,45,0.00
2018,03,25,04,46,0.00
2018,03,25,04,47,0.00
2018,03,25,04,48,0.00
2018,03,25,04,49,0.00
2018,03,25,04,50,0.00
2018,03,25,04,51,0.00
2018,03,25,04,52,0.00
2018,03,25,04,53,0.00
2018,03,25,04,54,0.00
2018,03,25,04,55,0.00
2018,03,25,04,56,0.00
2018,03,25,04,57,0.00
2018,03,25,04,58,0.00
2018,03,25,04,59,0.00
2018,03,25,05,00,0.00
2018,03,25,05,01,0.00
2018,03,25,05,02,0.00
2018,03,25,05,03,0.00
2018,03,25,05,04,0.00
2018,03,25,05,05,0.00
2018,03,25,05,06,0.00
2018,03,25,05,07,0.00
2018,03,25,05,08,0.00
2018,03,25,05,09,0.00
2018,03,25,05,10,0.00
2018,03,25,05,11,0.00
2018,03,25,05,12,0.00
2018,03,25,05,13,0.00
2018,03,25,05,14,0.00
2018,03,25,05,15,0.00
2018,03,25,05,16,0.00
2018,03,25,05,17,0.00
2018,03,25,05,18,0.00
2018,03,25,05,19,0.00
2018,03,25,05,20,0.00
2018,03,25,05,21,0.00
2018,03,25,05,22,0.00
2018,03,25,05,23,0.00
2018,03,25,05,24,0.00
2018,03,25,05,25,0.00
2018,03,25,05,26,0.00
2018,03,25,05,27,0.00
2018,03,25,05,28,0.00
2018,03,25,05,29,0.00
2018,03,25,05,30,0.00
2018,03,25,05,31,0.00
2018,03,25,05,32,0.00
2018,03,25,05,33,0.00
2018,03,25,05,34,0.00
2018,03,25,05,35,0.00
2018,03,25,05,36,0.00
2018,03,25,05,37,0.00
2018,03,25,05,38,0.00
2018,03,25,05,39,0.00
2018,03,25,05,40,0.00
2018,03,25,05,41,0.00
2018,03,25,05,42,0.00
2018,03,25,05,43,0.00
2018,03,25,05,44,0.00
2018,03,25,05,45,0.00
2018,03,25,05,46,0.00
2018,03,25,05,47,0.00
2018,03,25,05,48,0.00
2018,03,25,05,49,0.00
2018,03,25,05,50,0.00
2018,03,25,05,51,0.00
2018,03,25,05,52,0.00
2018,03,25,05,53,0.00
2018,03,25,05,54,0.00
2018,03,25,05,55,0.00
2018,03,25,05,56,0.00
2018,03,25,05,57,0.00
2018,03,25,05,58,0.00
2018,03,25,05,59,0.00
2018,03,25,06,00,0.00
2018,03,25,06,01,0.00
2018,03,25,06,02,0.00
2018,03,25,06,03,0.00
2018,03,25,06,04,0.00
2018,03,25,06,05,0.00
2018,03,25,06,06,0.00
2018,03,25,06,07,0.00
2018,03,25,06,08,0.00
2018,03,25,06,09,0.00
2018,03,25,06,10,0.00
2018,03,25,06,11,0.00
2018,03,25,06,12,0.00
2018,03,25,06,13,0.00
2018,03,25,06,14,0.00
2018,03,25,06,15,0.00
2018,03,25,06,16,0.00
2018,03,25,06,17,0.00
2018,03,25,06,18,0.00
2018,03,25,06,19,0.00
2018,03,25,06,20,0.00
2018,03,25,06,21,0.00
2018,03,25,06,22,0.00
2018,03,25,06,23,0.00
2018,03,25,06,24,0.00
2018,03,25,06,25,0.00
2018,03,25,06,26,0.00
2018,03,25,06,27,0.00
2018,03,25,06,28,0.00
2018,03,25,06,29,0.00
2018,03,25,06,30,0.00
2018,03,25,06,31,0.00
2018,03,25,06,32,0.00
2018,03,25,06,33,0.00
2018,03,25,06,34,0.00
2018,03,25,06,35,0.00
2018,03,25,06,36,0.00
2018,03,25,06,37,0.00
2018,03,25,06,38,0.00
2018,03,25,06,39,0.00
2018,03,25,06,40,0.00
2018,03,25,06,41,0.00
2018,03,25,06,42,0.00
2018,03,25,06,43,0.00
2018,03,25,06,44,0.00
2018,03,25,06,45,0.00
2018,03,25,06,46,0.00
2018,03,25,06,47,0.00
2018,03,25,06,48,0.00
2018,03,25,06,49,0.00
2018,03,25,06,50,0.00
2018,03,25,06,51,0.00
2018,03,25,06,52,0.00
2018,03,25,06,53,0.00
2018,03,25,06,54,0.00
2018,03,25,06,55,0.00
2018,03,25,06,56,0.00
2018,03,25,06,57,0.00
2018,03,25,06,58,0.00
2018,03,25,06,59,0.00
2018,03,25,07,00,0.00
2018,03,25,07,01,0.00
2018,03,25,07,02,0.00
2018,03,25,07,03,0.00
2018,03,25,07,04,0.00
2018,03,25,07,05,0.00
2018,03,25,07,06,0.00
2018,03,25,07,07,0.00
2018,03,25,07,08,0.00
2018,03,25,07,09,0.00
2018,03,25,07,10,0.00
2018,03,25,07,11,0.00
2018,03,25,07,12,0.00
2018,03,25,07,13,0.00
2018,03,25,07,14,0.00
2018,03,25,07,15,0.40
2018,03,25,07,16,5.00
2018,03,25,07,17,5.00
2018,03,25,07,18,5.00
2018,03,25,07,19,5.00
2018,03,25,07,20,5.00
2018,03,25,07,21,5.00
2018,03,25,07,22,5.00
2018,03,25,07,23,6.90
2018,03,25,07,24,7.00
2018,03,25,07,25,7.00
2018,03,25,07,26,7.00
2018,03,25,07,27,7.00
2018,03,25,07,28,7.00
2018,03,25,07,29,7.00
2018,03,25,07,30,8.50
2018,03,25,07,31,9.00
2018,03,25,07,32,9.00
2018,03,25,07,33,9.40
2018,03,25,07,34,11.00
2018,03,25,07,35,11.00
2018,03,25,07,36,11.00
2018,03,25,07,37,11.00
2018,03,25,07,38,11.00
2018,03,25,07,39,11.00
2018,03,25,07,40,11.90
2018,03,25,07,41,12.00
2018,03,25,07,42,12.00
2018,03,25,07,43,12.00
2018,03,25,07,44,12.90
2018,03,25,07,45,14.00
2018,03,25,07,46,15.30
2018,03,25,07,47,16.00
2018,03,25,07,48,16.00
2018,03,25,07,49,17.90
2018,03,25,07,50,19.00
2018,03,25,07,51,19.50
2018,03,25,07,52,21.00
2018,03,25,07,53,21.00
2018,03,25,07,54,21.00
2018,03,25,07,55,22.40
2018,03,25,07,56,24.60
2018,03,25,07,57,25.00
2018,03,25,07,58,25.10
2018,03,25,07,59,26.00
2018,03,25,08,00,26.60
2018,03,25,08,01,28.00
2018,03,25,08,02,28.00
2018,03,25,08,03,29.20
2018,03,25,08,04,30.00
2018,03,25,08,05,30.00
2018,03,25,08,06,31.90
2018,03,25,08,07,32.00
2018,03,25,08,08,32.20
2018,03,25,08,09,33.70
2018,03,25,08,10,35.00
2018,03,25,08,11,36.00
2018,03,25,08,12,37.00
2018,03,25,08,13,38.60
2018,03,25,08,14,41.70
2018,03,25,08,15,43.90
2018,03,25,08,16,44.70
2018,03,25,08,17,49.50
2018,03,25,08,18,49.40
2018,03,25,08,19,47.00
2018,03,25,08,20,49.40
2018,03,25,08,21,52.40
2018,03,25,08,22,53.80
2018,03,25,08,23,54.00
2018,03,25,08,24,60.80
2018,03,25,08,25,67.00
2018,03,25,08,26,65.70
2018,03,25,08,27,64.60
2018,03,25,08,28,69.60
2018,03,25,08,29,80.80
2018,03,25,08,30,92.30
2018,03,25,08,31,90.90
2018,03,25,08,32,102.90
2018,03,25,08,33,99.70
2018,03,25,08,34,84.70
2018,03,25,08,35,81.70
2018,03,25,08,36,84.30
2018,03,25,08,37,87.10
2018,03,25,08,38,89.40
2018,03,25,08,39,97.80
2018,03,25,08,40,114.20
2018,03,25,08,41,115.20
2018,03,25,08,42,104.10
2018,03,25,08,43,100.00
2018,03,25,08,44,100.70
2018,03,25,08,45,102.00
2018,03,25,08,46,102.00
2018,03,25,08,47,104.10
2018,03,25,08,48,108.30
2018,03,25,08,49,113.10
2018,03,25,08,50,125.30
2018,03,25,08,51,126.40
2018,03,25,08,52,118.70
2018,03,25,08,53,114.00
2018,03,25,08,54,117.30
2018,03,25,08,55,120.70
2018,03,25,08,56,121.00
2018,03,25,08,57,120.10
2018,03,25,08,58,118.40
2018,03,25,08,59,124.80
2018,03,25,09,00,133.20
2018,03,25,09,01,135.40
2018,03,25,09,02,165.20
2018,03,25,09,03,189.70
2018,03,25,09,04,195.80
2018,03,25,09,05,204.80
2018,03,25,09,06,208.80
2018,03,25,09,07,225.10
2018,03,25,09,08,198.40
2018,03,25,09,09,181.30
2018,03,25,09,10,172.80
2018,03,25,09,11,171.00
2018,03,25,09,12,196.70
2018,03,25,09,13,211.00
2018,03,25,09,14,201.20
2018,03,25,09,15,210.60
2018,03,25,09,16,243.50
2018,03,25,09,17,265.40
2018,03,25,09,18,305.00
2018,03,25,09,19,327.70
2018,03,25,09,20,303.60
2018,03,25,09,21,272.00
2018,03,25,09,22,255.40
2018,03,25,09,23,274.40
2018,03,25,09,24,304.30
2018,03,25,09,25,321.50
2018,03,25,09,26,321.20
2018,03,25,09,27,337.20
2018,03,25,09,28,343.30
2018,03,25,09,29,346.80
2018,03,25,09,30,358.70
2018,03,25,09,31,383.60
2018,03,25,09,32,381.50
2018,03,25,09,33,399.60
2018,03,25,09,34,385.80
2018,03,25,09,35,371.00
2018,03,25,09,36,353.90
2018,03,25,09,37,348.90
2018,03,25,09,38,355.30
2018,03,25,09,39,390.10
2018,03,25,09,40,393.00
2018,03,25,09,41,390.10
2018,03,25,09,42,391.90
2018,03,25,09,43,404.30
2018,03,25,09,44,411.50
2018,03,25,09,45,416.00
2018,03,25,09,46,426.30
2018,03,25,09,47,456.50
2018,03,25,09,48,466.00
2018,03,25,09,49,466.00
2018,03,25,09,50,255.00
2018,03,25,09,51,229.70
2018,03,25,09,52,134.00
2018,03,25,09,53,114.70
2018,03,25,09,54,141.70
2018,03,25,09,55,137.50
2018,03,25,09,56,112.40
2018,03,25,09,57,111.00
2018,03,25,09,58,109.10
2018,03,25,09,59,111.70
2018,03,25,10,00,117.30
2018,03,25,10,01,121.70
2018,03,25,10,02,123.00
2018,03,25,10,03,123.00
2018,03,25,10,04,123.00
2018,03,25,10,05,126.10
2018,03,25,10,06,133.20
2018,03,25,10,07,139.40
2018,03,25,10,08,141.40
2018,03,25,10,09,125.90
2018,03,25,10,10,110.30
2018,03,25,10,11,98.40
2018,03,25,10,12,95.00
2018,03,25,10,13,93.60
2018,03,25,10,14,94.60
2018,03,25,10,15,98.00
2018,03,25,10,16,106.70
2018,03,25,10,17,137.60
2018,03,25,10,18,199.00
2018,03,25,10,19,199.00
2018,03,25,10,20,199.00
2018,03,25,10,21,199.00
2018,03,25,10,22,199.00
2018,03,25,10,23,122.30
2018,03,25,10,24,110.90
2018,03,25,10,25,140.80
2018,03,25,10,26,272.00
2018,03,25,10,27,272.00
2018,03,25,10,28,189.20
2018,03,25,10,29,101.20
2018,03,25,10,30,117.30
2018,03,25,10,31,125.00
2018,03,25,10,32,487.50
2018,03,25,10,33,486.10
2018,03,25,10,34,128.60
2018,03,25,10,35,137.60
2018,03,25,10,36,155.40
2018,03,25,10,37,176.30
2018,03,25,10,38,177.30
2018,03,25,10,39,166.10
2018,03,25,10,40,175.80
2018,03,25,10,41,201.30
2018,03,25,10,42,208.00
2018,03,25,10,43,211.90
2018,03,25,10,44,201.70
2018,03,25,10,45,186.00
2018,03,25,10,46,168.50
2018,03,25,10,47,151.30
2018,03,25,10,48,135.10
2018,03,25,10,49,125.80
2018,03,25,10,50,122.30
2018,03,25,10,51,133.60
2018,03,25,10,52,121.00
2018,03,25,10,53,119.00
2018,03,25,10,54,113.40
2018,03,25,10,55,107.40
2018,03,25,10,56,102.90
2018,03,25,10,57,103.60
2018,03,25,10,58,106.80
2018,03,25,10,59,111.30
2018,03,25,11,00,113.00
2018,03,25,11,01,111.70
2018,03,25,11,02,106.80
2018,03,25,11,03,102.90
2018,03,25,11,04,102.00
2018,03,25,11,05,105.70
2018,03,25,11,06,108.70
2018,03,25,11,07,107.10
2018,03,25,11,08,107.70
2018,03,25,11,09,114.10
2018,03,25,11,10,123.00
2018,03,25,11,11,152.90
2018,03,25,11,12,185.00
2018,03,25,11,13,415.00
2018,03,25,11,14,524.00
2018,03,25,11,15,524.00
2018,03,25,11,16,235.40
2018,03,25,11,17,279.00
2018,03,25,11,18,279.00
2018,03,25,11,19,235.00
2018,03,25,11,20,171.00
2018,03,25,11,21,415.10
2018,03,25,11,22,573.00
2018,03,25,11,23,573.00
2018,03,25,11,24,573.00
2018,03,25,11,25,521.40
2018,03,25,11,26,229.90
2018,03,25,11,27,231.30
2018,03,25,11,28,212.20
2018,03,25,11,29,220.00
2018,03,25,11,30,269.30
2018,03,25,11,31,290.00
2018,03,25,11,32,360.20
2018,03,25,11,33,369.00
2018,03,25,11,34,396.40
2018,03,25,11,35,517.00
2018,03,25,11,36,412.30
2018,03,25,11,37,258.40
2018,03,25,11,38,245.70
2018,03,25,11,39,230.60
2018,03,25,11,40,227.00
2018,03,25,11,41,225.10
2018,03,25,11,42,229.70
2018,03,25,11,43,224.80
2018,03,25,11,44,216.70
2018,03,25,11,45,214.90
2018,03,25,11,46,219.90
2018,03,25,11,47,228.70
2018,03,25,11,48,246.10
2018,03,25,11,49,268.00
2018,03,25,11,50,283.10
2018,03,25,11,51,289.60
2018,03,25,11,52,283.60
2018,03,25,11,53,274.00
2018,03,25,11,54,273.00
2018,03,25,11,55,317.00
2018,03,25,11,56,348.00
2018,03,25,11,57,729.10
2018,03,25,11,58,776.50
2018,03,25,11,59,772.00
2018,03,25,12,00,650.00
2018,03,25,12,01,225.00
2018,03,25,12,02,230.20
2018,03,25,12,03,232.00
2018,03,25,12,04,636.20
2018,03,25,12,05,874.00
2018,03,25,12,06,874.00
2018,03,25,12,07,241.50
2018,03,25,12,08,224.30
2018,03,25,12,09,240.60
2018,03,25,12,10,228.80
2018,03,25,12,11,228.30
2018,03,25,12,12,237.90
2018,03,25,12,13,243.00
2018,03,25,12,14,244.00
2018,03,25,12,15,250.00
2018,03,25,12,16,271.10
2018,03,25,12,17,286.40
2018,03,25,12,18,218.80
2018,03,25,12,19,195.40
2018,03,25,12,20,184.00
2018,03,25,12,21,150.60
2018,03,25,12,22,112.70
2018,03,25,12,23,104.60
2018,03,25,12,24,185.50
2018,03,25,12,25,192.00
2018,03,25,12,26,308.20
2018,03,25,12,27,719.30
2018,03,25,12,28,720.90
2018,03,25,12,29,707.30
2018,03,25,12,30,685.00
2018,03,25,12,31,675.00
2018,03,25,12,32,675.00
2018,03,25,12,33,90.80
2018,03,25,12,34,135.10
2018,03,25,12,35,81.40
2018,03,25,12,36,68.80
2018,03,25,12,37,60.00
2018,03,25,12,38,71.30
2018,03,25,12,39,79.00
2018,03,25,12,40,79.00
2018,03,25,12,41,76.30
2018,03,25,12,42,76.00
2018,03,25,12,43,76.00
2018,03,25,12,44,76.00
2018,03,25,12,45,76.00
2018,03,25,12,46,80.10
2018,03,25,12,47,94.10
2018,03,25,12,48,100.00
2018,03,25,12,49,100.00
2018,03,25,12,50,112.30
2018,03,25,12,51,106.00
2018,03,25,12,52,96.40
2018,03,25,12,53,83.40
2018,03,25,12,54,82.10
2018,03,25,12,55,102.00
2018,03,25,12,56,159.00
2018,03,25,12,57,178.00
2018,03,25,12,58,854.40
2018,03,25,12,59,886.40
2018,03,25,13,00,229.20
2018,03,25,13,01,233.30
2018,03,25,13,02,245.10
2018,03,25,13,03,231.30
2018,03,25,13,04,201.70
2018,03,25,13,05,185.10
2018,03,25,13,06,169.60
2018,03,25,13,07,156.10
2018,03,25,13,08,152.60
2018,03,25,13,09,168.70
2018,03,25,13,10,193.30
2018,03,25,13,11,204.00
2018,03,25,13,12,201.80
2018,03,25,13,13,200.00
2018,03,25,13,14,201.50
2018,03,25,13,15,202.00
2018,03,25,13,16,236.50
2018,03,25,13,17,260.00
2018,03,25,13,18,260.00
2018,03,25,13,19,265.20
2018,03,25,13,20,264.90
2018,03,25,13,21,241.40
2018,03,25,13,22,214.70
2018,03,25,13,23,194.60
2018,03,25,13,24,199.10
2018,03,25,13,25,241.00
2018,03,25,13,26,401.10
2018,03,25,13,27,988.00
2018,03,25,13,28,988.00
2018,03,25,13,29,988.00
2018,03,25,13,30,988.00
2018,03,25,13,31,1032.40
2018,03,25,13,32,1048.00
2018,03,25,13,33,357.40
2018,03,25,13,34,304.20
2018,03,25,13,35,291.10
2018,03,25,13,36,282.30
2018,03,25,13,37,280.10
2018,03,25,13,38,274.30
2018,03,25,13,39,269.70
2018,03,25,13,40,272.90
2018,03,25,13,41,274.00
2018,03,25,13,42,261.00
2018,03,25,13,43,240.40
2018,03,25,13,44,227.20
2018,03,25,13,45,223.80
2018,03,25,13,46,223.00
2018,03,25,13,47,211.60
2018,03,25,13,48,201.80
2018,03,25,13,49,203.30
2018,03,25,13,50,205.90
2018,03,25,13,51,198.90
2018,03,25,13,52,188.00
2018,03,25,13,53,180.00
2018,03,25,13,54,176.30
2018,03,25,13,55,171.20
2018,03,25,13,56,165.00
2018,03,25,13,57,155.60
2018,03,25,13,58,142.80
2018,03,25,13,59,130.20
2018,03,25,14,00,124.70
2018,03,25,14,01,124.10
2018,03,25,14,02,129.00
2018,03,25,14,03,132.00
2018,03,25,14,04,129.60
2018,03,25,14,05,125.90
2018,03,25,14,06,123.40
2018,03,25,14,07,127.50
2018,03,25,14,08,129.20
2018,03,25,14,09,137.90
2018,03,25,14,10,131.90
2018,03,25,14,11,121.70
2018,03,25,14,12,106.70
2018,03,25,14,13,100.00
2018,03,25,14,14,89.60
2018,03,25,14,15,87.70
2018,03,25,14,16,91.20
2018,03,25,14,17,104.80
2018,03,25,14,18,129.80
2018,03,25,14,19,169.80
2018,03,25,14,20,210.60
2018,03,25,14,21,238.10
2018,03,25,14,22,244.00
2018,03,25,14,23,259.60
2018,03,25,14,24,286.30
2018,03,25,14,25,262.60
2018,03,25,14,26,264.30
2018,03,25,14,27,314.70
2018,03,25,14,28,292.10
2018,03,25,14,29,272.40
2018,03,25,14,30,246.70
2018,03,25,14,31,236.90
2018,03,25,14,32,226.60
2018,03,25,14,33,218.80
2018,03,25,14,34,225.00
2018,03,25,14,35,226.60
2018,03,25,14,36,227.30
2018,03,25,14,37,216.40
2018,03,25,14,38,207.80
2018,03,25,14,39,191.70
2018,03,25,14,40,179.80
2018,03,25,14,41,178.90
2018,03,25,14,42,177.60
2018,03,25,14,43,174.40
2018,03,25,14,44,187.10
2018,03,25,14,45,193.00
2018,03,25,14,46,191.60
2018,03,25,14,47,187.70
2018,03,25,14,48,187.40
2018,03,25,14,49,191.30
2018,03,25,14,50,179.60
2018,03,25,14,51,151.40
2018,03,25,14,52,139.40
2018,03,25,14,53,141.00
2018,03,25,14,54,138.00
2018,03,25,14,55,126.20
2018,03,25,14,56,114.30
2018,03,25,14,57,111.00
2018,03,25,14,58,122.90
2018,03,25,14,59,143.00
2018,03,25,15,00,156.00
2018,03,25,15,01,154.80
2018,03,25,15,02,152.50
2018,03,25,15,03,158.90
2018,03,25,15,04,169.10
2018,03,25,15,05,177.30
2018,03,25,15,06,183.70
2018,03,25,15,07,197.40
2018,03,25,15,08,217.50
2018,03,25,15,09,243.00
2018,03,25,15,10,287.00
2018,03,25,15,11,329.00
2018,03,25,15,12,328.60
2018,03,25,15,13,301.50
2018,03,25,15,14,278.60
2018,03,25,15,15,252.40
2018,03,25,15,16,228.70
2018,03,25,15,17,229.90
2018,03,25,15,18,209.90
2018,03,25,15,19,194.70
2018,03,25,15,20,186.00
2018,03,25,15,21,189.60
2018,03,25,15,22,194.30
2018,03,25,15,23,196.50
2018,03,25,15,24,198.80
2018,03,25,15,25,201.90
2018,03,25,15,26,202.90
2018,03,25,15,27,208.80
2018,03,25,15,28,208.40
2018,03,25,15,29,186.00
2018,03,25,15,30,161.50
2018,03,25,15,31,147.30
2018,03,25,15,32,148.10
2018,03,25,15,33,174.80
2018,03,25,15,34,195.40
2018,03,25,15,35,197.90
2018,03,25,15,36,188.90
2018,03,25,15,37,174.70
2018,03,25,15,38,167.90
2018,03,25,15,39,181.00
2018,03,25,15,40,197.40
2018,03,25,15,41,195.70
2018,03,25,15,42,179.20
2018,03,25,15,43,178.80
2018,03,25,15,44,192.50
2018,03,25,15,45,179.10
2018,03,25,15,46,161.30
2018,03,25,15,47,154.10
2018,03,25,15,48,145.70
2018,03,25,15,49,135.60
2018,03,25,15,50,136.60
2018,03,25,15,51,162.30
2018,03,25,15,52,197.80
2018,03,25,15,53,243.00
2018,03,25,15,54,251.20
2018,03,25,15,55,231.40
2018,03,25,15,56,248.10
2018,03,25,15,57,234.70
2018,03,25,15,58,198.50
2018,03,25,15,59,269.70
2018,03,25,16,00,264.20
2018,03,25,16,01,189.90
2018,03,25,16,02,226.30
2018,03,25,16,03,235.70
2018,03,25,16,04,231.80
2018,03,25,16,05,225.30
2018,03,25,16,06,229.70
2018,03,25,16,07,227.70
2018,03,25,16,08,260.00
2018,03,25,16,09,327.70
2018,03,25,16,10,269.70
2018,03,25,16,11,246.00
2018,03,25,16,12,233.50
2018,03,25,16,13,242.50
2018,03,25,16,14,209.30
2018,03,25,16,15,185.00
2018,03,25,16,16,255.50
2018,03,25,16,17,210.80
2018,03,25,16,18,202.80
2018,03,25,16,19,152.30
2018,03,25,16,20,207.80
2018,03,25,16,21,194.50
2018,03,25,16,22,160.20
2018,03,25,16,23,143.70
2018,03,25,16,24,133.50
2018,03,25,16,25,128.40
2018,03,25,16,26,133.40
2018,03,25,16,27,129.20
2018,03,25,16,28,124.70
2018,03,25,16,29,119.10
2018,03,25,16,30,116.90
2018,03,25,16,31,124.10
2018,03,25,16,32,129.60
2018,03,25,16,33,128.20
2018,03,25,16,34,121.30
2018,03,25,16,35,136.40
2018,03,25,16,36,134.30
2018,03,25,16,37,133.80
2018,03,25,16,38,129.40
2018,03,25,16,39,125.70
2018,03,25,16,40,125.00
2018,03,25,16,41,127.40
2018,03,25,16,42,136.30
2018,03,25,16,43,135.40
2018,03,25,16,44,139.00
2018,03,25,16,45,139.70
2018,03,25,16,46,142.30
2018,03,25,16,47,142.90
2018,03,25,16,48,142.00
2018,03,25,16,49,147.20
2018,03,25,16,50,152.40
2018,03,25,16,51,151.10
2018,03,25,16,52,150.50
2018,03,25,16,53,148.30
2018,03,25,16,54,148.60
2018,03,25,16,55,145.00
2018,03,25,16,56,142.00
2018,03,25,16,57,137.10
2018,03,25,16,58,132.60
2018,03,25,16,59,130.20
2018,03,25,17,00,128.20
2018,03,25,17,01,130.00
2018,03,25,17,02,130.60
2018,03,25,17,03,132.80
2018,03,25,17,04,136.60
2018,03,25,17,05,139.00
2018,03,25,17,06,137.60
2018,03,25,17,07,134.40
2018,03,25,17,08,128.20
2018,03,25,17,09,127.00
2018,03,25,17,10,127.00
2018,03,25,17,11,127.00
2018,03,25,17,12,127.40
2018,03,25,17,13,126.30
2018,03,25,17,14,122.30
2018,03,25,17,15,122.60
2018,03,25,17,16,123.00
2018,03,25,17,17,124.20